Regional Weather Roundup
Issued by NWS

Home | Current Version | Previous Version | Graphics & Text | Print | Product List | Glossary On
Versions: 1 2 3 4 5 6 7 8 9 10 11 12 13 14 15 16 17 18 19 20 21 22 23 24 25 26 27 28 29 30 31 32 33 34 35 36 37 38 39 40 41 42 43 44 45 46 47 48 49 50
000
ASUS43 KDTX 291110
RWRMI
MICHIGAN HOURLY REGIONAL WEATHER ROUNDUP
NATIONAL WEATHER SERVICE DETROIT/PONTIAC MI
700 AM EDT FRI APR 29 2016

NOTE: "FAIR" INDICATES FEW OR NO CLOUDS BELOW 12,000 FEET WITH NO
SIGNIFICANT WEATHER AND/OR OBSTRUCTION TO VISIBILITY.

MIZ047>049-052>055-059>063-066>070-074>076-081>083-291200-
SOUTHEAST LOWER MICHIGAN

CITY           SKY/WX    TMP DP  RH WIND       PRES   REMARKS
ADRIAN         CLOUDY    45  34  65 E6        30.02R
ALMA           LGT RAIN  38  33  80 N3        30.07R
ANN ARBOR      CLOUDY    44  30  57 NE6       30.02R
BAD AXE        CLOUDY    42  32  69 E5        30.06R
CARO           CLOUDY    41  37  84 N3        30.05R
DETROIT CITY   LGT RAIN  42  33  70 CALM      30.04R
DETROIT        CLOUDY    45  30  55 N6        30.05R
FLINT          CLOUDY    44  33  65 NW5       30.06R
GROSSE ILE     CLOUDY    43  36  75 N5        30.03R
HILLSDALE      CLOUDY    44  34  68 NE3       30.00F
HOWELL         CLOUDY    42  32  67 N3        30.03S

CITY           SKY/WX    TMP DP  RH WIND       PRES   REMARKS
JACKSON        CLOUDY    44  34  67 CALM      30.02R
LAMBERTVILLE   CLOUDY    46  34  62 N3        30.03R
LANSING        CLOUDY    40  36  86 NE5       30.05R
LAPEER         CLOUDY    41  34  75 CALM      30.04R
MASON          DRIZZLE   41  36  81 CALM      30.03S
MONROE         CLOUDY    45  33  62 CALM      30.03R
MT. CLEMENS    CLOUDY    44  31  61 NE1       30.02R
PONTIAC        CLOUDY    43  32  65 NW3       30.03R
PORT HOPE        N/A     41  36  82 SE3       30.05S
PORT HURON     CLOUDY    41  34  75 CALM      30.03R
TRI CITIES     CLOUDY    42  34  73 N7        30.06R
MIDLAND        CLOUDY    40  32  73 CALM      30.06S
TROY           CLOUDY    44  31  60 CALM      30.05R
SAGINAW HB     CLOUDY    41  36  81 CALM      30.05R
$$
MIZ043>046-050>051-056>058-064>065-071>073-077>080-291200-
SOUTHWEST LOWER MICHIGAN

CITY           SKY/WX    TMP DP  RH WIND       PRES   REMARKS
BATTLE CREEK   CLOUDY    44  35  70 E6        30.02S
BENTON HARBOR  CLOUDY    45  42  89 E3        30.02R
BIG RAPIDS     LGT SNOW  36  31  83 N5        30.07R WCI  32
COLDWATER      CLOUDY    45  38  78 NE5       30.00F
FREMONT        LGT RAIN  38  35  87 NE5       30.06R WCI  35
HOLLAND        LGT RAIN  42  37  82 NE3       30.05R
GRAND RAPIDS   CLOUDY    41  36  82 NE7       30.05R
IONIA          LGT RAIN  38  36  89 N6        30.05R WCI  34
KALAMAZOO      CLOUDY    44  38  79 NE5       30.01F
LUDINGTON      LGT RAIN  37  35  95 NE3       30.09R
MARSHALL       CLOUDY    43  35  73 CALM      30.02S
MOUNT PLEASANT CLOUDY    38  32  77 NW5       30.06R WCI  35
MUSKEGON       CLOUDY    42  34  73 NE6       30.06R
SOUTH HAVEN    CLOUDY    44  42  95 NE3       30.03R
$$
MIZ016>042-291200-
NORTHERN LOWER MICHIGAN

CITY           SKY/WX    TMP DP  RH WIND       PRES   REMARKS
ALPENA         CLOUDY    39  31  72 NE6       30.11R WCI  35
BEAVER ISLAND  CLOUDY    35  31  87 CALM      30.13R
BELLAIRE       CLOUDY    42  23  46 CALM      30.10S
CADILLAC       CLOUDY    38  28  67 CALM      30.06R
CHARLEVOIX     CLOUDY    40  27  58 CALM      30.14S
FRANKFORT      CLOUDY    42  35  75 E6        30.09R
GAYLORD        CLOUDY    38  24  57 NE3       30.08S HAZE
GRAYLING       CLOUDY    39  26  59 NE3       30.09R
HARBOR SPRINGS CLOUDY    37  27  66 NE3       30.12R
HOUGHTON LAKE  CLOUDY    38  26  62 NE8       30.07R WCI  32
MANISTEE       CLOUDY    41  28  60 E3        30.10R
OSCODA         CLOUDY    41  33  74 NE6       30.08R
PELLSTON       CLOUDY    32  29  88 CALM      30.13R
ROGERS CITY    CLOUDY    32  30  92 CALM      30.13S
TRAVERSE CITY  CLOUDY    42  35  76 N5        30.09R
$$
MIZ007>008-015-291200-
EASTERN UPPER MICHIGAN

CITY           SKY/WX    TMP DP  RH WIND       PRES   REMARKS
KINROSS          N/A     36  30  80 E6        30.14R WCI  31
MACKINAC ISLAN CLOUDY    38  30  74 E8        30.13R WCI  32
NEWBERRY       PTCLDY    34  32  92 CALM      30.14R
S. S. MARIE    PTCLDY    38  28  67 CALM      30.14R
MUNISING         N/A     35  33  92 CALM      30.14R
$$
MIZ004>006-011>014-085-291200-
CENTRAL UPPER MICHIGAN

CITY           SKY/WX    TMP DP  RH WIND       PRES   REMARKS
MANISTIQUE     CLOUDY    36  31  84 NE3       30.12R
ESCANABA       CLOUDY    39  28  65 N3        30.13R
MENOMINEE      CLOUDY    41  28  60 NE7       30.11R
SAWYER-GWINN   CLOUDY    36  27  69 NW3       30.14R
$$
MIZ001>003-009>011-084-291200-
WESTERN UPPER MICHIGAN

CITY           SKY/WX    TMP DP  RH WIND       PRES   REMARKS
IRON MOUNTAIN  CLOUDY    37  26  64 N3        30.11R
HOUGHTON       CLOUDY    30  26  85 NW3       30.14R
COPPER HARBOR    N/A     33  28  81 W5        30.15R WCI  29
IRONWOOD       PTCLDY    28  27  93 NW3       30.14R
$$

ABBREVIATIONS USED IN REMARKS
   TC - TEMPERATURE IN CELSIUS
  WCI - WIND CHILL INDEX
   HX - HEAT INDEX
  VSB - VISIBILITY





USA.gov is the U.S. government's official web portal to all federal, state and local government web resources and services.